Location: Barrio Pajares
(40.5500°N, 4.1667°W)
Time: 09:15:32
(UTC+00:00)

Cosmos 2263 Rocket - Pass Details

Date: 18 April 2024
Orbit: 824 x 847 km, 71.0° (Epoch: 19 May)

Event Time Altitude Azimuth Distance (km) Brightness Sun altitude
Rises 22:41:43 0° 338° (NNW) 3,387 6.4 -33.8°
Reaches altitude 10° 22:44:11 10° 340° (NNW) 2,446 5.4 -34.0°
Enters shadow 22:47:49 41° 350° (N) 1,181 3.2 -34.3°
